Date,TemperatureHighF,TemperatureAvgF,TemperatureLowF,DewpointHighF,DewpointAvgF,DewpointLowF,HumidityHigh,HumidityAvg,HumidityLow,PressureMaxIn,PressureMinIn,WindSpeedMaxMPH,WindSpeedAvgMPH,GustSpeedMaxMPH,PrecipitationSumIn
2013-3-10,61.7,57.8,45.0,0.0,0.0,0.0,0,0,100,30.31,30.29,7,1,7,0.00
2013-3-11,72.7,62.2,52.0,0.0,0.0,0.0,0,0,100,30.24,30.14,12,1,12,0.00
2013-3-12,77.8,58.8,46.9,0.0,0.0,0.0,0,0,100,30.19,30.11,8,1,8,0.00
2013-3-13,78.8,63.2,52.4,0.0,0.0,0.0,0,0,100,30.21,30.14,10,2,10,0.00
2013-3-14,76.0,65.2,56.4,0.0,0.0,0.0,0,0,100,30.19,30.12,12,1,12,0.00
2013-3-15,77.0,60.7,52.1,0.0,0.0,0.0,0,0,100,30.14,30.05,11,1,11,0.00
2013-3-16,68.9,54.3,48.9,0.0,0.0,0.0,0,0,100,30.09,30.03,8,1,9,0.00
2013-3-17,53.2,51.3,47.5,0.0,0.0,0.0,0,0,100,30.09,30.07,0,0,0,0.00
2013-3-18,69.5,55.6,45.7,0.0,0.0,0.0,0,0,100,30.11,30.05,10,1,10,0.00
2013-3-19,66.0,55.7,52.3,0.0,0.0,0.0,0,0,100,30.13,30.07,11,1,11,0.00
2013-3-20,53.1,50.8,50.0,0.0,0.0,0.0,0,0,100,30.12,30.09,8,0,8,0.03
2013-3-21,64.3,56.6,48.9,0.0,0.0,0.0,0,0,100,30.10,29.99,12,2,12,0.00
2013-3-22,49.3,48.5,48.0,0.0,0.0,0.0,0,0,100,30.05,30.05,0,0,0,0.00
2013-3-23,43.9,43.9,43.9,0.0,0.0,0.0,0,0,100,30.06,30.06,3,3,3,0.00
2013-3-24,72.5,60.1,46.6,0.0,0.0,0.0,0,0,100,30.10,29.99,11,1,11,0.00
2013-3-25,72.0,57.0,49.5,0.0,0.0,0.0,0,0,100,30.02,29.92,15,2,15,0.00
2013-3-26,69.3,56.1,46.0,0.0,0.0,0.0,0,0,100,29.99,29.93,13,1,13,0.01
2013-3-27,70.9,56.7,48.4,0.0,0.0,0.0,0,0,100,30.03,29.94,17,2,17,0.00
2013-3-28,64.6,55.4,50.9,0.0,0.0,0.0,0,0,100,30.12,30.02,8,1,8,0.01
2013-3-29,61.4,52.3,50.2,0.0,0.0,0.0,0,0,100,30.12,30.09,6,3,6,0.00